COSMOS 397 DEB, 5192

Orbit data source: Space-Track

COSMOS 397 DEB, 5192 is space debris in LEO originally from a launch on Thu, 25 Feb 1971 UTC launched from the Tyuratam Missile And Space Complex (TTMTR). Debris objects in space refer to the collection of defunct objects orbiting the Earth. Examples of debris include non-operational satellites, rocket bodies, and fragments generated from explosions, collisions, or faulty payload assembly.

Loading next visibility...
Identifier
5192, 1971-015AP
Orbit
LEO
Country
Flag of CISCIS
Related business
Manufacturer
Unknown
Mission
Spacecraft
Bus & Motor
Unknown
Mass
Unknown
Launch date (UTC)
1971-02-25 (55 years ago)
Launch vehicle
Unknown
Launch site
Tyuratam Missile And Space Complex (TTMTR)
Object type
Payload
Rocket body
Debris
Shape & HBR
Unknown shape, 0.1 m
Radar Cross Section
Small (<0.1 m²)

Expand to show TLE details & history
Last TLE update: 1 day ago

TLE from 1 day ago
0 COSMOS 397 DEB
1 05192U 71015AP  25348.31397570  .00050172  00000-0  22578-2 0  9999
2 05192  65.5226 307.3544 0110964 124.2041 236.9668 15.15380247743343
Epoch: 2025-12-14T07:32Z
TLE epoch observation values (Epoch: 2025-12-14T07:32:07.500Z)
Latitude
0.00004°
Longitude
111.09449°
Altitude
564.24 km
Speed
7.556 km/s
True Right ascension
20h 29m 25s
True Declination
0° 00' 00"
Sunlit
Object was in daylight at epoch
Visualization orbit readout
Latitude
Unknown
Longitude
Unknown
Altitude
Unknown
Speed
Unknown
Apparent Right ascension
Unknown
Apparent Declination
Unknown
Sunlit
N/A
Visualization observer readout
Local Sidereal Time
13:22:43
Azimuth
Unknown
Elevation
Unknown
Doppler factor
Unknown
Orbital elements
Apogee altitude
594.806 km
Perigee altitude
441.755 km
Semi-major axis
6,896.417 km
Eccentricity
0.0111
Inclination
65.5226°
RAAN
307.3544°
Arg. of periapsis
124.2041°
True anomaly
235.90885°
Mean anomaly
236.9668°
Eccentric anomaly
236.43702°
Mean motion
3.78973 °/min
Orbital period
94.99 mins
BSTAR
0.0022578
Loading maneuver chart data...
Computing Atmospheric mass density...
Loading historical data...
Loading historical data...
Loading historical data...
Loading historical data...
Loading historical data...
Loading historical data...
Loading historical data...

Documentation

Showing up to 5 results
|